Weather Roundup
Issued by NWS Springfield, MO

Home | Current Version | Previous Version | Text Only | Print | Product List | Glossary On
Versions: 1 2 3 4 5 6 7 8 9 10 11 12 13 14 15 16 17 18 19 20 21 22 23 24 25 26 27 28 29 30 31 32 33 34 35 36 37 38 39 40 41 42 43 44 45 46 47 48 49 50
000
NZUS99 KSGF 251657
HRRSGF

HOURLY WEATHER
NATIONAL WEATHER SERVICE SPRINGFIELD MO
1200 PM CDT TUE APR 25 2017

......SGF CWA......

CITY           SKY/WX    TMP DP  RH WIND       PRES   REMARKS
SPRINGFIELD    SUNNY     73  53  49 S14G28    29.50F
JOPLIN         SUNNY     76  57  51 S23G30    29.45F
WEST PLAINS    SUNNY     73  51  46 S17G25    29.61F
ROLLA          SUNNY     73  51  46 S18G28    29.55F
BRANSON        PTSUNNY   75  54  46 S14G24    29.55S

......SURROUNDING SGF CWA......

CITY           SKY/WX    TMP DP  RH WIND       PRES   REMARKS
CHANUTE        SUNNY     72  56  57 S21G31    29.40F
PARSONS        SUNNY     72  56  57 S17G30    29.42F
COFFEYVILLE    MOSUNNY   72  58  61 S18G29    29.42S
EMPORIA        CLOUDY    71  56  58 S14G23    29.40R
HARRISON AR    SUNNY     76  55  48 SE20      29.55F

......KANSAS AND MISSOURI......

CITY           SKY/WX    TMP DP  RH WIND       PRES   REMARKS
KANSAS CTY INT CLOUDY    70  52  52 S12       29.43F
SEDALIA        CLOUDY    74  53  48 S16G29    29.48F
ST JOSEPH      MOSUNNY   71  52  50 MISG      29.42F
ST LOUIS       CLOUDY    73  49  42 S14       29.63F
WICHITA        MOSUNNY   72  57  59 SW12      29.39R
TOPEKA         PTSUNNY   70  54  56 S7G18     29.40S
OLATHE         PTSUNNY   68  54  60 S15G22    29.43F

......TENNESSEE......

CITY           SKY/WX    TMP DP  RH WIND       PRES   REMARKS
MEMPHIS        NOT AVBL
NASHVILLE      PTSUNNY   71  57  61 SE8       29.79F

......ARKANSAS.......

CITY           SKY/WX    TMP DP  RH WIND       PRES   REMARKS
FAYETTEVILLE   LGT RAIN  73  57  57 S21G31    29.51F
FT SMITH       SUNNY     81  56  42 S14G24    29.52F
LITTLE ROCK    MOSUNNY   74  55  51 S17       29.67F

......OKLAHOMA.......

CITY           SKY/WX    TMP DP  RH WIND       PRES   REMARKS
TULSA          PTSUNNY   75  58  55 S22G30    29.41F
PONCA CITY     SUNNY     76  56  49 S9G23     29.37S
MCALESTER      MOSUNNY   74  60  61 S15G31    29.50S
OKLAHOMA CITY  MOSUNNY   79  55  43 SW17      29.41R

......IOWA............

CITY           SKY/WX    TMP DP  RH WIND       PRES   REMARKS
DES MOINES     NOT AVBL
QUAD CITIES    CLOUDY    70  45  40 S13       29.60F

......ILLINOIS........

CITY           SKY/WX    TMP DP  RH WIND       PRES   REMARKS
QUINCY         NOT AVBL
CHICAGO        CLOUDY    74  49  41 S14       29.67F




USA.gov is the U.S. government's official web portal to all federal, state and local government web resources and services.